Weather History for Fort Leonard Wood, MO

Change the Weather History Date:

Wednesday, March 13, 2013

  Actual Average Record
Temperature  
Mean Temperature 35 °F -  
Max Temperature 44 °F 51 °F 82 °F (2012)
Min Temperature 26 °F 35 °F 24 °F (1998)
Degree Days  
Heating Degree Days 30    
Moisture  
Dew Point 18 °F    
Average Humidity 54    
Maximum Humidity 78    
Minimum Humidity 29    
Precipitation  
Precipitation 0.00 in - - ()
Sea Level Pressure  
Sea Level Pressure 30.39 in    
Wind  
Wind Speed 8 mph (NW)    
Max Wind Speed 14 mph    
Max Gust Speed 21 mph    
Visibility 10 miles    
Events      
Averages and records for this station are not official NWS values.
T = Trace of Precipitation, MM = Missing Value Source: NWS Daily Summary

Daily Weather History Graph

Daily Weather History Graph

Search for Another Location

Airport:

Trip Planner

Search our weather history database for the weather conditions in past years. The results will help you decide how hot, cold, wet, or windy it might be!

Date:

Astronomy

Mar. 13, 2013 Rise Set
Actual Time 7:22 AM CDT 7:14 PM CDT
Civil Twilight 6:56 AM CDT 7:40 PM CDT
Nautical Twilight 6:25 AM CDT 8:10 PM CDT
Astronomical Twilight 5:55 AM CDT 8:41 PM CDT
Moon 8:04 AM CDT (3/13) 9:27 PM CDT (3/13)
Length of Visible Light 12h 44m
Length of Day
11h 51m
Waxing Crescent, 4% of the Moon is Illuminated
Mar 13
Waxing Crescent
Mar 19
First Quarter
Mar 27
Full
Apr 2
Last Quarter
Apr 10
New

Hourly Weather History & Observations

Time (CDT) Temp. Windchill Dew Point Humidity Pressure Visibility Wind Dir Wind Speed Gust Speed Precip Events Conditions
12:58 AM 31.3 °F 26.6 °F 22.6 °F 70% 30.29 in 10.0 mi West 4.6 mph - N/A   Clear
1:58 AM 30.4 °F 24.5 °F 21.9 °F 71% 30.29 in 10.0 mi West 5.8 mph - N/A   Clear
2:58 AM 29.7 °F 22.0 °F 21.7 °F 72% 30.30 in 10.0 mi West 8.1 mph - N/A   Clear
3:58 AM 28.4 °F 22.2 °F 21.7 °F 76% 30.30 in 10.0 mi WNW 5.8 mph - N/A   Partly Cloudy
4:58 AM 27.3 °F 18.4 °F 21.4 °F 78% 30.32 in 10.0 mi WNW 9.2 mph - N/A   Clear
5:58 AM 27.0 °F 18.7 °F 20.5 °F 77% 30.34 in 10.0 mi WNW 8.1 mph - N/A   Clear
6:58 AM 26.2 °F 17.1 °F 19.4 °F 75% 30.36 in 10.0 mi WNW 9.2 mph - N/A   Clear
7:58 AM 26.2 °F 15.8 °F 18.9 °F 74% 30.38 in 10.0 mi WNW 11.5 mph - N/A   Clear
8:58 AM 28.0 °F 18.1 °F 19.2 °F 70% 30.41 in 10.0 mi NW 11.5 mph 20.7 mph N/A   Clear
9:58 AM 30.4 °F 20.5 °F 18.0 °F 60% 30.43 in 10.0 mi NW 12.7 mph - N/A   Clear
10:58 AM 33.3 °F 25.1 °F 17.6 °F 53% 30.45 in 10.0 mi NNW 10.4 mph - N/A   Clear
11:58 AM 36.0 °F 28.5 °F 14.0 °F 41% 30.46 in 10.0 mi NW 10.4 mph - N/A   Clear
12:44 PM 39.2 °F 31.2 °F 14.0 °F 36% 30.43 in 10.0 mi NNW 13.8 mph - N/A   Clear
12:58 PM 38.7 °F 31.8 °F 14.9 °F 38% 30.47 in 10.0 mi NNW 10.4 mph - N/A   Clear
1:58 PM 41.0 °F 34.7 °F 13.8 °F 33% 30.46 in 10.0 mi NNW 10.4 mph - N/A   Clear
2:58 PM 43.0 °F 36.0 °F 12.9 °F 30% 30.44 in 10.0 mi NNW 13.8 mph 17.3 mph N/A   Clear
3:58 PM 43.9 °F 37.9 °F 14.0 °F 30% 30.42 in 10.0 mi NW 11.5 mph - N/A   Clear
4:58 PM 44.8 °F 38.7 °F 14.4 °F 29% 30.42 in 10.0 mi NW 12.7 mph - N/A   Clear
5:58 PM 44.2 °F 39.7 °F 16.2 °F 32% 30.41 in 10.0 mi NNW 8.1 mph - N/A   Clear
6:58 PM 42.3 °F - 17.4 °F 37% 30.40 in 10.0 mi North 2.3 mph - N/A   Scattered Clouds
7:58 PM 39.9 °F - 15.8 °F 38% 30.40 in 10.0 mi North 2.3 mph - N/A   Partly Cloudy
8:58 PM 38.3 °F - 16.0 °F 40% 30.40 in 10.0 mi NE 2.3 mph - N/A   Scattered Clouds
9:58 PM 34.0 °F - 21.7 °F 61% 30.42 in 10.0 mi Calm Calm - N/A   Scattered Clouds
10:58 PM 32.0 °F - 22.3 °F 67% 30.43 in 10.0 mi Calm Calm - N/A   Clear
11:58 PM 30.7 °F - 22.6 °F 72% 30.41 in 10.0 mi SSE 2.3 mph - N/A   Partly Cloudy